Terminal Aerodrome Forecast
Issued by NWS

Current Version | Previous Version | Graphics & Text | Print | Product List | Glossary On
Versions: 1 2 3 4 5 6 7 8 9 10 11 12 13 14 15 16 17 18 19 20 21 22 23 24 25 26 27 28 29 30 31 32 33 34 35 36 37 38 39 40 41 42 43
000
FTUS41 KRNK 211727
TAFLWB
TAF
KLWB 211727Z 2118/2218 25009G19KT P6SM VCSH BKN040
     FM212200 28008KT P6SM SCT045
     FM220600 30004KT P6SM BKN025
     FM221400 34005KT P6SM OVC025=

USA.gov is the U.S. government's official web portal to all federal, state and local government web resources and services.